Theta_e
320 321 322 325 328 330 334 335 338 341 340 340 340 337 334 339 336 336 337 337 335 338 339 338 336 338 338 338 337 333 330 335 339 333 331 331 331 331 330 332 337 340 341
318 318 320 323 326 326 329 332 334 337 337 335 331 329 326 324 321 324 324 325 328 330 331 334 334 336 337 338 337 337 335 335 334 337 332 332 331 332 333 338 339 341 340
318 318 317 319 323 327 328 326 328 329 330 327 325 324 324 322 323 325 326 326 326 326 327 328 331 332 333 333 333 332 330 331 332 333 333 332 333 333 334 337 340 341 341
314 316 316 317 318 320 323 324 324 325 327 327 324 322 321 321 322 323 323 323 323 323 325 326 326 329 330 330 331 331 330 330 328 329 330 331 330 331 334 337 339 338 337
312 313 314 315 317 317 319 318 319 317 324 324 326 324 323 322 322 322 322 322 323 323 323 324 325 325 325 327 326 327 327 327 326 326 327 328 329 330 334 336 336 336 335
311 312 312 312 313 315 316 320 316 318 318 323 323 322 324 324 322 321 322 323 324 324 324 324 323 323 323 322 321 315 314 322 323 322 321 324 328 331 333 335 336 336 337
311 311 311 311 311 312 315 315 319 317 316 318 322 323 323 322 325 324 320 325 326 325 326 325 324 323 322 320 319 319 318 317 316 318 322 323 325 327 331 335 335 334 334
308 308 310 310 310 311 312 314 315 319 320 319 320 320 323 324 319 320 324 321 327 327 327 327 326 324 323 322 322 324 323 322 320 320 322 324 326 328 330 329 332 332 332
307 307 307 308 308 311 311 313 314 315 319 321 322 323 324 324 322 324 324 326 323 328 329 328 328 327 325 322 323 323 322 321 320 319 318 317 321 326 323 328 330 331 332
306 306 307 307 308 309 311 312 312 313 315 318 320 322 323 324 324 324 324 325 325 325 327 328 327 327 326 324 323 323 323 322 321 321 321 320 320 323 330 329 330 329 330
305 306 306 306 307 307 308 311 312 312 312 315 318 320 322 323 325 325 324 324 326 327 326 327 327 325 325 324 322 324 324 323 322 321 319 318 319 321 329 327 328 327 326
304 305 306 306 306 306 306 306 309 311 313 315 316 318 319 321 322 323 323 323 324 325 325 325 326 325 325 324 322 320 321 320 318 318 318 318 319 319 327 328 327 325 325
304 304 304 304 305 305 305 306 306 309 310 312 313 315 317 318 321 321 321 321 322 323 323 323 324 325 324 324 323 321 319 316 316 317 318 319 319 319 328 325 324 323 326
302 303 303 303 303 304 305 305 306 306 308 311 312 314 314 316 317 321 319 320 320 320 320 321 322 322 324 323 321 319 318 318 318 318 318 319 320 322 328 324 322 323 327
300 301 301 300 300 302 303 304 305 305 307 309 310 311 313 315 315 317 319 319 319 318 318 319 322 322 322 322 322 321 320 319 318 318 319 322 321 325 324 322 323 324 326
298 299 299 300 300 301 302 303 303 304 306 306 308 310 312 311 312 312 312 313 319 318 317 319 321 323 322 322 321 321 320 320 319 319 321 323 324 327 318 323 324 323 328
297 297 298 299 300 300 300 299 302 302 303 303 305 306 307 307 309 310 310 309 311 317 318 318 320 321 322 321 320 320 319 319 319 321 323 324 325 325 323 325 326 328 328
296 296 297 298 299 300 299 299 299 299 300 301 302 303 304 305 306 306 307 308 309 311 317 318 318 319 320 319 318 319 319 319 318 323 324 325 325 326 325 324 326 328 329
294 295 295 295 297 298 299 299 300 301 301 302 304 302 302 303 304 305 306 305 309 312 312 316 317 317 317 317 318 318 318 318 319 325 323 324 326 326 326 325 327 328 330
292 293 293 294 294 296 297 298 299 299 298 301 302 304 303 301 302 302 302 303 306 310 312 313 314 314 314 314 316 316 317 318 320 322 324 325 326 326 326 327 329 330 330
293 294 295 295 296 297 298 298 299 299 300 301 300 304 304 302 303 303 304 305 306 309 311 312 313 313 315 316 317 318 318 320 324 323 325 327 327 327 327 329 329 330 330
297 298 299 301 303 305 307 306 302 301 301 301 302 303 304 303 304 305 307 308 308 311 312 314 315 315 316 316 318 319 319 320 323 325 327 327 327 326 328 329 329 329 328
299 300 303 310 312 311 311 306 304 303 304 304 305 304 303 306 305 307 309 310 311 312 312 313 315 315 316 318 318 318 318 321 325 325 326 327 324 328 327 328 328 327 327
313 314 314 313 313 311 310 310 308 308 307 306 305 304 305 308 308 309 310 311 311 313 313 313 313 314 316 317 317 318 319 323 324 326 327 326 327 326 326 324 324 325 323
310 310 314 314 314 313 312 311 310 309 308 306 306 306 308 309 310 311 311 311 311 313 313 313 313 315 317 318 318 320 323 326 328 327 327 327 326 326 326 323 322 319 315
306 308 310 311 310 312 313 313 313 313 311 311 312 311 311 311 311 311 312 313 314 314 314 315 317 317 317 319 320 325 326 327 327 327 327 326 325 324 324 321 316 314 312
Wind_Speed
15 15 16 17 16 19 20 23 24 23 26 19 10 16 40 26 12 10 6 8 12 16 19 18 22 25 25 27 31 28 23 21 16 16 18 16 16 19 24 22 21 21 21
14 17 15 17 18 13 13 16 19 22 22 18 20 21 23 21 20 16 18 12 11 22 17 20 22 23 25 24 29 18 11 20 13 13 17 19 22 23 24 20 20 20 21
16 16 18 15 15 17 12 14 13 14 20 24 20 21 19 18 18 17 14 11 17 19 19 19 20 18 15 21 19 19 17 17 19 22 19 19 21 20 17 17 18 17 17
21 19 20 17 17 15 16 11 11 14 14 16 18 18 17 15 16 16 16 15 17 18 19 20 19 19 16 16 18 17 17 16 18 20 19 19 22 20 14 19 17 15 17
24 24 22 21 21 20 15 21 22 32 27 19 19 17 16 16 17 17 17 16 17 18 19 17 16 14 12 13 14 13 11 11 15 18 18 19 20 14 9 16 16 17 17
27 25 26 25 25 23 22 12 18 32 36 20 18 16 19 21 20 26 23 20 21 21 17 16 14 18 16 17 18 16 13 9 13 16 19 18 22 17 16 17 15 11 6
30 29 28 29 28 26 24 22 20 26 38 34 26 20 20 21 24 13 26 23 22 23 21 19 19 19 20 17 17 13 12 13 14 14 15 19 21 23 20 20 16 13 14
29 34 36 31 32 29 27 25 22 22 31 37 39 32 26 25 28 27 24 28 24 26 25 25 24 20 21 17 15 14 14 11 13 14 15 18 20 21 17 22 18 12 16
33 34 37 39 38 34 28 26 23 24 24 24 28 33 30 28 28 23 27 30 31 26 27 27 27 24 22 22 19 16 14 13 12 15 14 15 18 20 24 21 18 13 8
34 34 33 33 33 34 29 25 25 25 27 28 29 28 29 27 28 24 27 26 33 29 29 28 31 28 28 27 24 20 18 17 13 12 13 17 17 16 14 13 11 12 9
34 32 29 31 30 30 29 29 29 27 28 27 29 28 27 26 26 31 33 31 30 28 30 30 30 35 34 29 31 24 22 17 14 12 16 18 16 13 13 11 14 14 11
31 28 29 29 28 28 30 27 26 28 28 28 27 27 30 30 32 34 35 37 32 28 27 31 30 38 38 37 37 30 26 23 16 18 19 18 17 17 14 13 14 17 19
28 27 27 27 30 28 28 29 28 25 24 26 28 28 29 30 33 36 37 39 38 34 31 30 27 32 41 38 35 32 32 19 18 20 20 19 17 15 12 12 15 19 19
28 26 26 26 27 27 27 27 26 26 24 25 28 25 26 28 31 29 38 40 41 39 35 30 21 15 29 29 22 27 23 20 20 21 21 20 16 14 15 13 17 14 17
27 26 28 27 27 28 30 29 29 33 30 27 29 30 26 25 29 30 28 34 34 33 29 28 25 21 20 21 22 21 19 18 20 22 19 17 18 16 14 14 15 15 16
28 26 25 25 26 27 26 27 35 39 32 40 36 33 28 33 25 21 17 15 38 37 32 27 26 25 24 24 24 23 23 24 22 21 14 16 18 15 15 17 19 23 18
28 28 26 26 25 25 25 23 12 27 37 47 42 44 47 36 23 27 26 17 12 40 30 28 25 25 24 26 24 24 23 22 21 14 15 15 17 15 15 18 18 16 17
28 27 28 28 27 25 26 26 25 21 13 28 44 51 42 46 48 38 15 15 14 17 24 26 26 24 25 26 25 24 23 21 18 15 15 15 17 16 15 16 19 18 19
27 26 24 23 25 26 26 27 27 24 23 23 22 35 49 45 43 42 35 18 17 22 26 27 26 25 25 25 24 26 23 21 15 15 14 16 20 21 20 22 23 22 16
26 27 32 26 22 23 23 23 22 21 22 22 18 20 29 33 31 29 26 21 18 20 23 30 30 27 27 26 27 25 24 16 17 18 16 17 20 25 22 22 23 17 13
23 22 21 21 21 22 21 20 22 21 19 18 24 19 30 26 27 27 26 28 25 25 26 29 29 31 29 28 26 24 19 15 14 15 15 20 22 23 24 24 19 16 15
21 18 16 14 17 14 11 11 22 19 18 18 19 20 32 25 26 27 27 29 27 27 29 23 24 30 29 28 25 21 20 14 16 18 19 21 24 24 22 18 16 14 20
16 11 10 6 6 7 9 11 14 15 15 17 18 20 25 20 25 26 25 28 26 25 24 23 25 17 18 24 18 17 18 17 19 21 21 23 19 21 19 16 16 15 15
17 18 6 11 10 10 10 12 14 17 17 18 18 21 20 17 25 27 24 23 21 20 17 16 17 20 17 17 16 14 17 19 23 24 23 19 16 19 19 19 15 20 22
18 16 16 15 11 12 12 12 13 14 16 16 17 19 18 21 22 26 24 23 23 23 22 20 20 22 14 14 17 20 23 23 21 24 27 24 20 21 23 25 24 24 24
18 16 15 15 16 15 15 15 16 16 15 16 18 19 22 24 24 27 27 26 21 21 21 22 21 21 18 19 21 22 21 22 24 26 23 23 25 24 21 23 23 22 23
Wind_Direction
316 308 300 287 279 284 272 265 258 255 252 252 213 166 207 186 192 175 260 259 249 225 236 243 242 243 250 263 262 262 285 266 244 261 277 288 283 282 290 278 274 275 272
300 309 313 306 293 268 272 269 263 250 244 235 222 208 205 204 216 212 214 206 241 255 242 235 247 236 227 247 270 280 232 267 291 286 282 284 280 278 276 270 268 266 269
298 302 301 305 305 299 295 263 266 260 230 225 218 215 211 207 203 208 214 215 225 242 244 249 246 245 252 249 256 266 262 260 254 254 260 276 275 277 281 278 269 271 272
297 294 291 288 294 290 294 299 321 271 259 235 207 202 197 192 192 200 203 208 222 230 234 236 239 230 235 246 254 270 276 277 283 292 292 282 276 268 270 277 279 275 274
290 289 287 284 279 282 269 265 252 282 298 228 224 210 210 203 198 201 199 200 209 222 221 222 224 229 236 229 243 248 278 281 275 279 280 276 269 272 272 271 265 276 276
285 282 286 281 278 274 276 255 243 236 279 292 264 233 229 221 221 195 196 197 199 204 207 204 226 208 227 233 237 250 259 265 270 279 286 296 307 306 307 275 271 272 284
289 278 274 278 272 268 260 262 223 221 245 262 258 247 242 227 246 254 205 206 205 205 199 203 210 211 208 218 222 232 238 245 246 255 272 277 287 290 295 296 268 262 272
289 284 282 276 273 265 261 251 253 240 219 229 244 247 242 232 222 232 240 233 221 212 206 206 209 222 194 209 224 219 229 251 254 248 254 273 278 283 291 295 275 272 285
276 273 273 269 270 264 255 256 247 249 251 246 234 235 237 233 228 222 229 233 235 229 215 211 210 217 224 219 221 240 252 257 267 266 269 290 286 280 285 274 259 272 283
275 275 269 271 273 270 267 262 252 250 250 245 241 237 236 237 241 241 232 221 226 229 229 224 218 216 222 227 224 227 243 252 262 272 277 292 293 292 293 229 252 267 270
278 269 270 267 266 269 277 264 252 248 249 247 244 243 238 233 229 235 235 226 229 223 226 227 224 222 225 228 231 225 231 245 260 269 281 287 295 285 263 248 251 253 268
274 267 269 262 261 263 259 263 274 245 243 242 246 243 236 233 228 226 227 227 226 232 231 224 230 221 223 228 233 235 238 245 259 268 277 283 285 289 256 256 261 272 281
268 266 261 262 259 253 254 253 251 252 247 247 235 232 238 236 225 225 222 225 226 225 235 237 234 231 217 224 230 236 244 245 250 258 268 275 282 288 265 265 275 289 297
271 265 264 265 265 258 248 242 240 241 243 239 240 234 232 231 233 223 219 220 224 225 227 239 241 242 216 210 219 226 233 237 239 253 266 275 277 272 247 259 290 301 308
276 265 254 251 253 252 248 243 236 237 235 233 235 239 239 229 231 227 225 207 211 218 220 228 225 215 199 202 214 221 220 228 232 240 252 273 276 265 257 287 285 303 274
264 263 257 251 248 248 245 245 242 242 237 235 236 240 243 248 241 236 240 263 207 208 208 217 220 212 216 217 219 223 228 234 243 250 246 261 263 239 279 286 282 276 243
262 261 262 258 249 244 241 243 243 241 242 243 242 242 246 248 259 260 261 276 254 204 201 212 220 218 213 213 222 230 241 244 246 214 222 242 248 229 260 256 249 230 243
271 266 258 252 248 243 234 233 233 229 229 232 236 238 240 243 245 250 251 249 241 221 216 214 216 226 218 225 231 230 240 247 234 195 204 228 224 219 229 250 246 232 236
271 266 265 262 253 247 242 238 235 230 230 228 220 223 231 234 238 242 244 246 248 222 216 226 224 229 224 232 231 233 238 239 213 179 207 219 218 223 226 232 237 228 207
274 266 258 259 256 248 240 236 231 223 220 229 213 221 207 214 222 226 229 229 238 236 227 221 230 232 237 231 230 228 233 212 190 194 211 219 214 220 230 232 227 204 183
270 267 260 254 250 244 237 227 219 212 212 200 212 217 196 193 199 201 205 210 215 221 222 230 216 222 222 227 223 224 217 194 177 200 212 214 208 212 233 232 195 179 149
274 266 267 260 255 246 251 241 202 189 189 192 197 202 179 180 179 191 202 202 204 209 215 224 234 218 210 216 215 210 204 190 197 209 211 202 211 234 226 189 173 164 145
281 252 255 280 41 46 49 103 129 159 173 181 181 163 166 175 175 182 190 185 198 203 210 228 229 238 249 209 199 201 207 212 213 212 201 198 226 221 160 160 153 148 135
19 16 117 61 60 72 72 80 95 124 122 126 137 154 168 180 172 178 181 188 186 202 197 213 213 231 227 193 191 194 215 221 211 197 187 180 192 150 143 145 152 121 122
28 31 36 48 56 74 86 95 103 116 126 134 140 153 167 162 172 173 177 188 197 191 199 208 212 223 224 206 211 211 208 202 190 188 177 170 157 137 125 117 121 122 120
28 37 39 54 50 53 68 84 94 108 123 137 144 151 155 159 160 163 180 189 187 180 192 201 204 215 225 217 214 206 196 196 189 176 173 152 133 126 129 129 130 132 130